Theta_e
304 296 293 293 296 296 298 299 299 298 299 298 298 296 295 295 296 297 297 297 298 298 297 298 298 299 300 301 303 304 304 303 303 303 303 304 305 305 306 306 308 309 309 320 316 315 313 314 316 320 324 326 327 327 328 329 331 333 333 334 334 335 334 333 333 333 332 330 330 331 333 332 333 332 333 333 333 334 335 337 338 339 336 335 334 333
301 295 294 297 299 299 299 299 298 298 297 297 296 295 294 295 294 297 296 297 299 296 296 299 298 299 300 301 303 304 303 302 303 302 303 304 305 306 307 308 309 310 314 314 312 310 313 312 313 313 314 318 323 325 326 326 328 330 332 332 333 334 334 333 332 333 332 332 331 330 330 331 334 334 334 331 332 333 335 336 337 337 337 336 334 332
295 293 297 299 300 300 299 299 298 297 296 297 295 295 294 294 295 294 295 297 298 296 295 298 296 297 299 301 303 303 303 304 305 305 304 304 305 305 307 309 310 311 312 312 311 312 310 312 312 311 311 312 316 320 324 326 327 328 329 330 331 332 333 333 332 333 332 333 333 332 331 331 330 333 336 336 335 335 335 337 338 337 337 336 335 333
291 294 299 300 300 299 297 297 297 297 297 296 295 294 291 295 292 290 294 296 296 296 296 297 295 297 300 301 302 304 303 304 306 306 306 308 307 307 307 308 309 309 310 310 310 309 309 312 311 311 311 311 312 313 319 322 324 326 327 328 329 331 332 332 332 332 333 333 334 333 333 332 331 330 332 335 338 337 337 334 335 336 335 335 336 335
293 296 296 299 299 298 295 297 296 295 294 298 299 296 294 294 294 296 293 295 295 296 295 295 295 295 297 297 299 302 303 303 304 303 304 305 306 307 309 308 308 307 308 308 309 310 309 308 308 309 310 311 311 311 313 318 321 323 325 327 328 329 330 331 331 331 332 332 331 331 331 332 331 332 331 331 331 332 333 332 332 333 334 333 333 335
295 295 297 296 298 297 297 294 296 297 293 295 299 299 297 297 295 295 295 293 293 293 296 295 289 290 296 298 298 301 299 300 301 301 301 303 304 304 302 303 305 307 306 306 307 309 310 309 309 309 310 310 310 310 312 313 317 319 322 325 326 327 328 329 330 331 330 329 328 327 325 324 325 323 323 324 325 327 328 328 330 331 332 333 334 335
295 292 295 297 297 297 297 295 298 297 294 293 294 300 297 296 297 296 295 295 290 288 294 295 288 287 296 296 298 299 298 298 302 300 301 303 303 303 303 305 307 308 309 309 308 307 307 307 307 308 309 309 309 309 312 312 312 314 317 320 323 325 325 327 328 329 328 327 326 326 325 325 323 322 324 326 327 327 328 328 329 332 333 335 334 334
293 293 294 298 297 297 296 293 298 298 294 292 297 299 299 298 297 296 297 296 294 294 294 293 295 289 289 295 299 298 297 298 299 301 301 302 303 304 305 306 306 308 308 309 309 308 307 306 306 306 308 310 311 311 311 311 311 312 314 317 320 322 323 325 326 326 326 325 324 325 325 324 323 323 324 326 327 327 327 327 327 328 328 330 331 332
294 292 296 296 297 295 294 297 301 299 295 295 294 300 298 298 298 298 297 295 295 293 290 292 298 288 288 295 296 297 295 297 298 299 301 303 304 304 305 305 306 306 307 305 306 308 308 307 307 310 311 312 311 311 311 310 310 312 313 317 318 319 321 324 324 325 325 324 324 324 324 322 323 324 325 326 327 326 326 325 326 326 327 327 329 330
296 295 297 298 297 294 296 293 298 299 295 294 297 300 300 301 300 299 295 295 293 290 286 291 294 287 288 295 295 297 296 296 298 299 301 303 303 304 304 305 306 306 307 307 307 308 309 310 310 310 311 310 312 311 313 313 312 313 314 315 316 318 320 323 323 323 323 324 324 324 323 322 323 323 323 324 323 324 324 323 323 324 325 325 326 327
295 296 296 297 296 296 293 295 296 297 299 298 300 298 297 297 297 295 296 294 291 285 287 292 292 291 285 293 294 295 296 297 298 300 301 302 302 302 303 304 306 306 307 308 308 308 308 308 309 310 310 310 311 313 312 312 313 314 315 317 317 319 321 321 322 323 323 323 323 323 323 322 322 323 322 321 321 320 320 320 320 321 322 323 324 325
296 294 296 296 294 296 297 296 298 298 299 301 298 295 295 292 294 292 290 293 285 284 287 287 290 292 283 289 296 297 295 298 299 299 300 300 301 302 304 304 305 305 306 308 308 308 308 308 309 310 310 311 312 313 314 315 315 315 316 317 318 318 319 320 321 321 321 322 322 323 322 322 322 322 321 320 320 320 319 319 319 320 320 320 321 321
292 294 297 296 297 295 299 295 294 296 297 298 296 294 288 286 286 283 287 283 283 283 286 288 289 287 287 292 296 297 296 297 299 301 301 301 301 302 303 304 305 306 307 308 309 309 310 310 310 310 310 312 312 313 314 315 317 318 319 318 315 315 316 318 319 319 320 320 321 321 321 322 322 322 321 320 319 320 319 319 319 318 318 318 318 318
291 296 295 297 296 296 299 292 289 289 294 295 293 291 286 283 282 280 283 285 286 285 286 287 291 284 291 294 298 297 299 299 300 301 301 300 300 301 303 304 305 306 307 308 309 310 310 310 310 310 311 311 311 312 313 314 316 318 319 318 317 316 317 317 317 318 318 319 320 320 321 321 320 320 320 319 319 320 320 320 319 319 318 318 318 318
284 284 290 293 290 299 297 297 295 294 293 294 302 294 289 288 284 279 283 281 282 285 284 287 285 285 286 290 298 297 298 299 298 298 300 300 300 301 302 303 305 306 307 309 309 308 308 309 309 310 310 310 310 311 312 313 314 315 315 317 316 315 317 318 319 320 319 319 320 320 320 319 319 319 319 319 320 319 318 318 317 317 317 316 317 317
288 289 292 295 294 295 296 298 297 298 294 297 297 298 291 289 294 285 286 286 285 284 283 283 285 291 292 298 297 298 298 297 297 298 297 299 300 301 302 304 305 306 306 307 307 307 308 308 309 309 309 309 309 310 311 312 313 313 313 313 313 313 314 315 316 317 318 318 317 317 317 317 317 316 316 316 315 315 315 314 314 314 314 315 315 316
289 286 293 296 296 294 295 295 296 298 287 293 293 288 292 296 292 285 283 285 282 284 284 289 287 291 296 297 298 298 296 297 296 297 296 299 300 302 304 305 305 306 306 307 307 306 306 306 306 307 307 307 307 307 307 308 309 310 310 310 309 310 310 311 312 312 312 312 312 312 313 313 313 313 313 313 314 313 313 313 313 312 313 313 313 313
288 288 291 293 292 294 294 292 297 295 295 293 286 292 296 297 297 289 283 284 283 281 283 288 285 287 289 286 297 295 295 295 295 296 297 299 301 303 305 305 305 305 306 306 306 305 305 305 304 304 304 305 305 305 305 305 307 308 308 308 308 308 308 309 309 310 311 311 311 311 311 311 311 311 311 311 311 311 311 311 311 312 311 312 312 311
297 285 289 291 293 294 297 297 294 296 295 294 292 301 291 285 285 288 286 280 280 280 282 285 287 287 290 291 293 294 294 295 296 297 297 298 301 303 304 304 305 304 304 304 304 304 305 304 304 304 303 303 304 304 305 305 306 306 306 306 306 305 306 307 308 308 308 309 310 310 309 309 309 309 309 309 309 310 310 310 310 310 310 310 310 310
299 288 287 292 292 294 295 294 286 290 297 296 296 293 296 291 289 286 286 287 286 282 282 283 284 284 292 293 295 295 296 297 297 296 297 298 301 303 303 303 303 303 304 304 304 304 304 303 303 303 303 303 304 304 304 304 305 305 305 305 305 305 306 306 306 307 306 307 308 308 308 308 308 308 308 308 308 308 308 308 307 307 308 307 307 308
290 293 285 288 294 294 287 291 290 292 287 289 290 289 292 293 294 291 293 287 285 283 283 283 282 286 294 296 296 296 297 299 298 297 298 299 303 304 303 303 303 304 304 304 304 303 303 302 302 302 302 302 303 303 304 304 304 304 304 304 305 304 304 305 305 306 306 306 306 306 305 305 305 305 306 306 306 305 305 305 305 305 304 305 306 305
289 288 285 287 287 286 291 294 293 294 294 292 291 289 290 288 286 283 283 292 285 285 283 283 282 289 297 297 298 297 296 300 301 299 299 300 303 303 303 303 304 304 304 304 304 303 302 301 301 301 302 303 302 302 302 303 303 303 303 304 303 304 304 303 304 304 304 304 304 304 303 303 303 303 304 304 303 303 303 303 302 302 303 303 304 304
296 295 290 285 288 290 293 294 293 293 291 294 294 292 295 292 291 287 282 285 286 285 284 285 282 286 296 296 296 297 296 295 296 300 300 302 303 303 304 304 305 305 304 304 303 303 302 302 302 301 302 301 301 302 302 302 302 302 302 302 302 302 301 302 302 303 303 303 302 302 302 302 301 302 302 301 301 301 300 301 301 301 301 301 302 302
295 289 287 288 290 291 292 294 293 292 294 293 293 294 293 291 292 290 289 288 286 285 283 285 281 287 297 296 294 295 295 295 295 296 301 302 303 303 303 304 304 303 304 303 303 302 302 301 301 301 301 301 301 301 301 301 301 301 301 301 301 300 300 301 302 302 302 302 302 302 301 301 301 301 300 300 300 299 299 299 300 299 300 300 300 300
288 290 288 285 284 286 288 292 291 294 294 290 291 294 294 296 294 290 288 290 286 287 286 285 280 287 299 294 295 295 294 293 295 294 299 302 303 303 303 303 303 303 302 301 301 301 300 300 301 301 301 301 300 300 300 300 300 300 299 300 300 299 300 300 301 302 302 302 301 301 300 300 300 299 299 299 299 298 299 298 298 299 299 299 299 299
290 290 289 283 280 278 278 279 282 286 288 291 294 295 294 294 293 290 286 287 284 288 287 285 285 292 294 294 294 295 295 295 295 296 296 302 303 302 303 303 302 302 301 301 301 300 300 300 301 300 300 300 300 300 300 300 299 299 298 298 299 299 299 300 300 301 301 300 299 298 298 298 298 297 297 297 298 298 298 298 298 298 298 297 297 298
288 291 290 289 286 284 287 289 294 296 291 288 290 291 292 294 294 292 291 288 285 288 287 288 290 291 291 293 293 295 294 295 295 295 295 299 303 303 303 302 302 301 301 301 300 300 300 300 299 300 300 299 299 299 299 299 299 298 298 297 298 298 298 299 299 299 298 298 297 297 296 296 296 296 296 296 296 296 296 296 296 296 296 296 296 296
289 288 290 292 291 291 293 293 296 296 291 291 291 290 293 291 291 289 287 286 292 288 284 291 293 289 292 294 294 296 296 296 297 296 295 299 302 302 302 302 299 301 301 301 300 300 299 299 299 299 298 298 298 298 298 298 298 298 297 297 297 297 297 298 298 297 297 296 296 295 295 295 295 295 295 295 295 295 295 295 295 295 295 295 295 295
288 286 291 292 292 294 296 296 297 296 295 295 293 293 291 293 291 287 288 292 293 288 285 292 293 291 292 295 296 297 298 297 297 297 297 299 302 302 301 300 299 300 300 300 300 300 299 299 298 298 298 298 297 297 297 296 296 296 296 296 296 295 295 296 296 296 295 295 294 294 294 295 295 294 295 294 294 293 293 293 293 293 293 293 294 294
291 288 291 293 291 293 295 294 297 295 294 294 294 294 294 293 292 291 291 293 293 292 293 293 294 295 296 296 297 298 301 300 299 300 299 300 300 300 300 299 299 299 299 300 300 300 300 299 298 298 297 297 297 296 296 296 296 296 295 294 295 294 295 295 295 294 294 293 293 293 294 293 293 293 293 292 292 292 292 292 292 292 292 292 292 292
292 287 292 292 288 288 294 295 295 295 294 291 294 295 294 293 292 293 292 293 293 293 294 294 293 293 299 301 300 302 299 298 297 297 297 300 300 299 298 298 298 299 299 300 300 300 300 299 298 297 296 296 296 296 296 295 295 294 294 294 294 293 294 294 293 292 292 292 292 292 292 292 292 292 291 291 291 290 290 290 290 290 290 290 291 291
291 288 290 289 285 285 292 291 291 291 291 291 292 294 293 292 289 291 289 293 291 290 292 292 290 292 297 300 299 298 298 297 297 297 297 299 300 299 298 299 299 300 300 300 300 299 298 297 296 295 295 295 294 294 294 294 294 293 293 293 292 293 293 293 292 292 291 291 291 291 291 291 290 290 290 290 289 289 289 289 288 289 289 289 289 289
289 288 287 287 284 283 289 289 288 287 286 284 285 292 294 294 294 294 295 295 295 295 291 287 290 296 298 299 297 296 296 297 297 298 298 299 301 300 299 299 300 301 300 300 299 298 296 295 295 295 294 294 294 293 293 294 293 292 292 292 292 292 292 292 291 291 290 290 290 290 290 290 289 289 289 288 288 288 287 287 287 287 287 287 288 289
291 290 288 289 284 285 285 285 287 284 278 279 292 296 296 294 294 292 292 294 296 296 294 296 296 299 299 298 297 296 296 297 298 301 302 301 301 300 300 301 301 301 301 300 298 296 296 296 295 294 294 293 293 292 293 293 292 291 291 291 291 291 291 291 291 290 290 289 289 289 289 289 288 288 288 288 288 287 286 286 286 287 286 287 288 288
288 289 288 289 286 284 283 285 281 276 278 290 295 297 298 297 297 295 296 296 296 297 297 296 297 298 298 299 298 298 298 299 299 300 300 302 303 302 300 301 301 300 299 297 295 295 295 295 294 293 292 292 291 291 291 291 291 291 290 291 290 290 290 290 289 289 289 289 289 289 288 288 288 287 287 287 286 286 286 286 286 286 286 287 287 286
289 288 289 288 288 286 282 283 276 277 288 293 294 295 300 297 296 296 293 297 297 297 297 296 297 298 299 299 299 300 301 300 300 298 298 300 303 304 301 301 301 299 297 296 295 295 295 293 292 292 292 292 292 292 291 290 291 290 289 290 289 289 289 289 288 287 288 288 288 287 287 287 286 286 286 285 285 285 285 285 285 285 286 286 286 286
294 291 290 286 289 281 283 283 282 291 287 289 290 291 292 291 292 291 286 290 297 298 297 297 297 298 299 299 301 297 296 297 298 298 299 298 300 302 303 301 301 299 297 296 296 295 294 294 293 292 292 292 291 291 290 291 290 289 289 288 289 288 288 288 287 286 286 286 286 286 286 286 285 284 284 284 284 284 284 284 284 285 286 285 285 286
296 289 291 287 285 288 284 281 282 282 279 286 293 298 297 298 298 298 292 288 297 298 299 298 297 298 298 298 296 295 295 295 292 294 299 297 298 298 299 300 299 297 296 295 294 294 293 293 292 291 291 290 290 290 290 290 290 289 288 287 288 287 286 285 285 285 284 285 285 285 285 285 284 283 283 283 283 283 283 284 284 285 286 285 284 284
294 295 293 288 286 286 284 281 280 278 282 289 295 296 298 299 300 298 290 286 294 297 299 299 297 298 298 296 293 295 293 289 291 295 299 296 295 296 296 296 296 295 294 294 293 292 291 291 290 289 289 288 287 288 288 289 288 288 287 287 286 285 284 283 282 282 282 283 284 284 284 284 283 282 282 282 282 282 282 283 283 284 285 284 284 284
288 289 289 287 285 286 284 282 280 284 284 289 293 294 294 298 300 293 281 282 294 297 299 299 297 297 297 297 295 294 292 290 291 297 298 295 294 295 295 294 293 292 292 292 292 291 290 289 288 287 286 286 286 287 287 287 287 286 286 285 284 282 280 280 280 280 281 282 282 282 282 282 281 280 281 280 281 281 282 282 283 282 282 282 283 284
286 286 287 284 285 286 286 284 286 286 295 297 294 295 295 299 295 284 279 288 297 298 298 299 298 298 298 296 295 292 295 297 296 294 293 294 293 293 294 294 293 292 291 290 289 288 288 288 287 285 285 285 284 285 286 287 285 285 284 282 280 278 278 279 279 279 279 280 280 280 280 280 280 279 279 280 280 280 281 282 281 281 281 281 282 282
286 286 287 287 285 284 285 283 284 287 294 297 295 295 297 293 284 283 292 297 297 296 297 297 297 298 297 297 296 296 298 293 292 294 293 293 293 292 291 291 290 290 290 289 288 287 286 285 284 283 282 282 282 283 284 285 284 283 281 278 277 276 277 277 277 278 277 278 278 278 278 278 278 278 278 279 279 279 279 280 280 281 281 282 281 280
286 285 283 284 286 287 286 284 283 279 290 295 292 292 295 288 290 296 294 292 293 296 297 296 297 297 297 296 297 297 292 292 292 292 292 292 291 290 289 289 288 287 287 287 286 286 285 283 282 282 281 280 280 280 281 282 281 280 278 275 275 276 276 276 276 276 276 277 276 276 277 276 276 276 277 277 278 278 278 279 280 280 280 280 280 280
292 285 285 286 289 283 283 281 282 289 292 297 296 289 292 295 297 296 301 296 294 295 295 298 297 298 299 298 297 294 293 292 291 291 291 290 290 289 289 288 287 287 286 286 285 284 284 282 281 280 279 278 278 277 277 279 278 277 275 273 274 275 274 274 273 274 275 275 275 275 275 275 275 276 276 277 277 277 277 278 278 279 280 280 280 280
291 288 289 286 290 287 286 289 292 293 295 299 300 298 298 300 297 297 297 299 296 295 295 297 297 297 298 297 295 293 291 292 291 291 289 289 288 288 287 286 285 284 284 283 283 283 282 281 279 278 277 276 275 275 274 276 275 273 272 272 273 272 272 272 272 273 273 273 273 273 272 273 274 275 276 276 276 276 276 277 277 277 278 279 279 279
292 292 288 292 290 292 290 290 294 291 292 296 294 295 294 297 297 296 299 297 298 298 295 295 297 295 295 295 293 292 292 291 290 290 289 289 288 287 286 284 283 282 281 281 281 281 281 280 278 276 274 273 273 272 272 272 272 271 270 271 271 271 270 270 270 271 271 271 271 271 271 272 273 274 274 274 275 275 276 276 276 276 277 277 278 278
292 291 290 289 289 290 286 293 292 293 294 294 296 294 293 293 295 296 296 297 296 296 294 295 295 295 294 294 293 292 291 291 290 289 288 287 286 285 284 282 281 280 280 279 279 279 278 277 276 275 273 271 271 271 271 270 270 270 270 270 269 269 268 268 269 269 269 269 269 270 271 271 272 272 273 273 274 274 275 275 275 276 276 276 276 276
288 293 291 291 290 289 290 293 293 291 290 291 294 295 295 296 294 293 293 291 291 292 294 294 294 292 293 292 293 291 290 290 289 288 287 286 284 283 282 281 279 278 278 278 278 277 277 276 275 273 272 270 270 269 269 269 269 269 269 268 267 267 267 268 268 268 267 268 269 270 271 271 272 271 272 272 272 273 273 274 275 274 274 274 275 274
289 291 286 290 289 291 294 292 290 292 293 292 291 292 295 297 296 293 290 289 290 290 290 292 293 293 293 294 293 291 289 290 289 288 286 285 283 281 280 278 277 276 275 275 275 275 275 274 273 273 271 269 269 268 268 268 268 268 267 267 266 266 265 266 267 267 267 268 269 269 270 270 270 271 271 271 272 273 274 273 273 274 274 275 276 275
288 286 289 289 286 287 288 291 291 288 289 293 293 293 293 293 293 291 288 288 289 290 290 290 289 290 291 292 292 291 289 289 288 287 285 283 282 280 278 277 276 275 274 273 273 272 272 272 271 271 269 269 268 268 268 267 267 267 266 266 266 265 264 265 265 267 267 268 269 269 269 269 270 270 271 271 271 272 272 275 276 276 274 274 276 277
288 290 290 287 287 287 292 293 293 294 294 297 295 295 295 292 291 290 290 290 290 290 290 289 288 288 289 290 290 290 290 289 287 287 284 282 280 279 277 276 274 273 272 271 270 270 269 269 269 269 268 268 267 267 266 266 266 265 265 265 265 265 264 264 265 266 268 268 268 268 268 268 269 270 270 270 271 270 270 269 271 274 275 275 275 276
Wind_Speed
7 9 11 12 11 13 13 14 7 4 6 7 7 7 5 8 6 5 7 5 0 3 10 12 13 13 13 11 9 8 7 7 8 9 9 8 8 8 8 9 9 9 9 3 6 5 5 6 6 7 8 9 10 10 11 12 12 12 11 11 12 10 11 10 9 9 9 9 9 10 10 9 8 9 9 9 9 9 9 9 9 6 8 9 9 8
5 10 12 12 12 13 14 8 3 3 3 6 6 7 5 8 6 3 4 4 2 3 6 9 10 13 14 12 13 11 11 11 11 12 13 12 11 9 9 10 10 9 3 6 4 6 6 6 6 6 6 8 10 10 12 12 13 12 12 12 11 9 11 11 10 9 9 9 8 7 8 8 8 8 8 9 9 9 8 9 8 8 5 6 6 6
9 12 11 12 3 5 6 5 3 3 4 4 6 7 5 5 5 3 5 3 4 2 7 2 8 12 12 12 13 13 12 11 11 12 12 12 12 11 9 9 8 6 7 6 7 7 7 8 8 7 6 7 8 9 11 11 11 12 12 11 10 10 10 10 10 9 9 8 8 7 6 6 6 7 9 9 9 7 8 8 9 9 10 10 10 8
10 12 10 8 6 6 4 4 5 3 3 4 5 6 8 5 6 4 4 6 3 3 2 4 7 10 12 13 15 13 12 12 10 9 8 4 6 8 8 6 6 7 6 7 6 7 8 8 8 7 7 7 7 7 8 10 11 10 10 10 10 10 10 9 10 9 8 8 7 7 6 5 5 2 3 4 7 8 7 9 9 10 9 10 10 11
9 3 5 5 7 9 8 7 8 7 7 5 4 6 6 6 6 3 4 4 3 3 2 6 8 11 11 12 10 11 4 2 5 4 6 6 6 6 4 4 5 7 6 6 6 6 6 8 8 8 8 8 8 8 8 9 9 7 10 10 10 9 9 9 8 10 8 6 6 5 5 3 5 2 3 2 4 6 6 7 8 10 10 10 10 9
4 0 2 5 9 9 10 9 10 8 8 6 5 3 0 8 6 7 9 7 3 4 6 4 4 7 7 13 13 5 3 7 7 7 9 10 8 6 7 8 7 6 6 7 7 6 6 6 6 6 7 8 7 8 8 8 8 8 7 8 9 8 7 8 9 9 8 7 7 7 7 7 7 8 8 9 8 7 7 8 8 9 9 9 9 9
0 1 2 7 7 6 8 9 9 9 8 7 5 6 2 3 7 7 7 4 4 4 4 2 7 4 4 5 7 5 4 6 5 6 8 7 6 6 5 5 5 4 5 5 5 5 5 5 5 7 7 8 8 7 6 7 7 8 7 7 8 7 6 6 7 9 8 8 7 8 8 8 8 8 6 5 6 6 6 6 8 8 9 10 10 10
4 4 2 4 8 8 7 8 7 10 7 6 3 3 5 5 8 8 8 7 2 5 4 2 4 6 6 5 6 4 4 6 8 8 8 6 6 5 4 4 3 2 3 3 4 5 5 6 7 8 7 6 5 5 4 4 5 7 7 7 8 6 6 6 7 8 8 7 8 8 8 7 8 8 6 5 5 5 5 5 6 6 6 7 8 8
3 6 6 8 8 7 9 2 7 11 9 0 1 2 6 5 6 8 7 4 1 1 4 6 3 3 6 4 4 4 6 9 10 10 9 7 5 4 4 2 1 2 2 3 3 3 4 5 5 4 4 3 3 2 4 4 5 5 6 7 7 7 7 7 8 8 9 7 7 7 7 7 7 7 6 4 4 3 4 5 5 6 6 6 6 6
3 2 4 4 8 8 4 4 5 6 11 2 3 4 6 5 5 5 3 4 3 4 7 7 7 5 9 3 5 3 6 8 7 8 8 7 6 3 2 1 1 1 1 2 3 2 2 2 2 2 3 3 3 3 3 4 5 6 6 8 8 8 7 7 9 8 9 8 7 7 7 8 7 5 4 4 3 3 4 5 6 5 5 5 5 4
3 1 3 2 3 3 5 7 3 7 6 10 7 10 7 5 4 2 1 3 3 6 5 5 2 4 5 3 6 6 5 5 7 6 6 5 4 3 1 1 1 1 1 2 2 2 2 2 3 3 4 4 4 4 5 5 6 6 7 8 9 8 6 7 8 8 8 8 7 6 7 7 7 6 5 4 4 3 4 5 6 6 6 6 6 5
3 3 3 2 1 4 3 6 7 1 6 7 5 7 7 4 3 3 3 2 5 6 3 3 1 3 7 3 3 3 3 3 1 4 6 6 5 3 2 1 1 1 1 2 2 3 4 5 4 4 5 5 5 5 5 5 6 6 7 8 9 7 7 6 7 7 8 7 7 7 7 7 6 6 4 5 5 5 5 6 5 5 5 5 5 6
3 3 2 4 3 2 5 8 4 3 2 2 7 9 7 4 4 5 4 6 7 6 3 2 1 2 12 12 1 4 2 3 2 1 5 6 5 4 3 2 2 2 1 2 3 3 4 5 5 5 5 5 5 5 6 6 6 6 7 8 9 8 7 7 8 8 8 7 6 6 6 6 6 6 6 5 5 4 5 4 4 4 4 4 5 5
2 4 2 2 3 5 6 9 6 4 6 7 10 9 8 7 6 6 6 3 3 3 3 2 0 5 6 7 14 16 12 6 5 5 5 4 4 3 3 2 2 2 2 3 3 3 4 4 4 5 5 5 5 5 5 6 6 5 6 8 9 9 8 8 8 8 8 8 7 7 6 6 5 5 5 5 4 4 3 3 3 3 3 3 4 4
5 3 7 10 3 8 6 4 7 5 12 11 3 9 7 5 4 6 6 8 4 1 3 5 1 4 3 1 4 5 7 7 6 5 4 3 3 2 2 2 2 4 3 3 4 4 4 5 5 5 5 5 5 5 5 5 5 6 6 7 9 8 7 8 8 7 7 7 7 6 6 5 4 4 4 4 3 2 2 2 2 3 3 3 4 3
9 1 3 4 1 3 6 2 3 3 6 2 1 3 3 6 2 4 1 1 2 2 3 2 5 4 4 5 4 3 3 1 4 4 2 4 4 4 3 4 4 4 4 4 5 5 5 5 5 5 5 5 5 5 5 6 5 5 6 6 7 7 6 6 6 5 5 5 4 4 4 3 2 2 1 1 1 1 1 1 2 3 3 3 3 4
2 5 2 2 1 2 1 4 2 4 6 7 3 4 3 5 5 4 2 2 1 1 5 5 4 6 5 11 9 9 5 5 4 4 5 5 6 6 5 5 5 5 5 5 5 5 5 5 5 5 5 5 5 5 5 5 5 6 6 7 7 7 7 6 5 5 5 5 5 4 3 2 2 1 1 1 1 1 1 1 1 1 2 2 3 3
8 4 1 1 4 1 1 2 2 4 3 4 2 6 2 2 3 1 3 2 2 5 2 4 6 6 3 3 5 6 6 7 6 7 7 8 7 8 6 6 6 6 5 5 5 6 6 6 6 5 5 6 5 5 6 6 5 5 6 6 7 7 7 6 6 6 5 5 5 5 4 4 3 3 2 1 1 1 1 0 1 1 1 0 1 2
2 3 2 3 2 2 1 1 1 1 1 2 1 1 6 2 4 4 2 3 3 5 4 6 8 8 6 6 4 6 7 9 9 8 9 9 9 9 8 8 7 6 6 6 6 5 5 4 5 5 5 5 6 6 6 5 6 6 6 7 7 8 7 6 5 6 5 5 4 4 5 4 3 3 2 2 2 1 2 2 2 1 1 1 1 1
1 3 2 2 2 3 1 4 7 4 3 2 1 2 3 2 5 5 5 2 3 6 2 3 5 4 6 8 6 4 8 10 11 10 11 11 11 9 9 9 8 8 7 6 6 5 5 5 5 4 4 5 5 5 5 6 5 7 6 7 7 7 7 7 7 6 7 5 5 5 5 5 4 4 3 3 2 2 2 3 3 3 3 3 2 2
2 2 2 2 2 2 4 5 7 9 7 5 5 5 2 2 2 3 2 5 4 5 6 6 4 3 4 8 10 12 8 9 12 11 9 10 10 10 10 10 9 8 7 7 6 6 6 6 5 5 5 5 4 4 5 5 6 5 6 6 6 7 7 7 6 6 6 5 6 6 6 5 5 5 4 4 4 3 4 4 4 4 4 3 3 3
2 3 4 6 4 6 3 4 2 3 4 8 10 10 11 9 4 5 5 2 0 3 4 4 6 1 3 2 4 2 4 4 6 11 9 10 10 10 10 10 10 9 8 8 7 7 6 6 5 5 4 4 5 5 6 5 5 6 6 6 6 6 6 6 6 6 6 6 6 6 6 6 5 5 5 5 5 5 5 5 5 4 4 4 4 3
1 2 5 5 5 6 2 1 2 0 1 1 2 6 8 6 6 4 7 3 1 2 3 1 3 3 3 2 2 3 3 3 4 3 9 10 11 11 10 10 9 8 9 8 8 7 6 6 6 5 5 5 5 5 6 5 5 6 6 6 6 6 6 6 6 6 6 6 6 7 6 6 6 6 6 6 5 6 6 6 5 5 5 5 5 4
3 3 4 3 3 2 3 1 3 1 2 3 6 3 2 11 11 8 2 1 4 3 2 2 4 4 1 2 2 2 1 2 1 2 7 9 10 10 12 11 10 9 8 7 6 6 5 6 6 6 6 6 5 5 6 6 6 5 5 5 6 7 7 6 6 6 6 6 7 7 7 7 6 6 6 6 6 6 6 5 4 4 5 5 4 5
4 3 7 4 3 2 1 2 1 1 2 5 7 8 7 2 6 3 1 0 2 6 6 5 9 7 2 2 2 2 2 3 4 5 4 10 9 10 11 9 8 9 8 8 8 7 7 6 6 5 5 5 5 5 5 5 5 5 6 5 6 6 6 5 5 5 6 7 7 7 7 7 6 7 7 6 5 5 5 4 4 4 5 5 5 4
7 6 8 6 8 8 8 10 11 9 11 7 3 1 9 8 6 4 6 4 8 6 10 5 8 10 3 2 4 4 4 4 5 6 5 6 9 11 10 9 9 9 9 9 8 8 8 6 5 5 5 5 5 5 5 5 6 6 6 6 5 6 5 5 5 5 6 6 7 7 8 7 6 7 6 5 5 5 5 4 4 4 4 4 4 4
1 1 11 13 12 9 8 6 6 7 7 7 10 14 12 13 15 9 1 6 8 5 7 9 11 12 4 5 5 6 5 7 8 7 9 7 9 9 9 9 9 9 9 10 9 7 6 6 7 6 6 5 5 5 5 5 6 6 6 7 6 5 5 5 5 6 7 7 7 7 7 6 6 5 5 5 5 4 4 4 4 4 4 3 2 3
2 5 8 11 16 16 16 15 9 13 13 14 17 15 15 15 12 12 10 13 13 8 9 9 13 12 14 8 8 8 8 7 7 8 9 9 10 11 11 10 9 8 8 8 8 9 9 8 7 7 6 6 6 5 5 5 5 6 6 6 5 5 5 4 6 6 7 6 7 6 6 5 4 4 4 4 4 4 4 4 4 4 3 3 4 3
8 11 8 10 12 13 6 4 8 10 11 8 13 10 14 13 14 13 14 16 12 9 13 15 16 16 16 14 9 10 9 9 11 11 10 10 9 9 9 10 11 10 10 9 9 9 10 10 9 8 8 7 7 7 7 6 6 6 6 6 6 6 5 4 5 6 6 6 6 5 4 4 3 3 4 4 4 4 4 4 3 3 3 3 3 3
4 8 8 8 10 11 5 4 4 10 9 10 10 9 10 12 13 15 16 16 17 14 15 20 16 14 15 11 12 11 7 6 3 5 7 9 11 10 10 9 10 11 11 12 12 11 10 10 9 9 9 8 8 8 7 7 6 6 6 6 5 6 4 4 5 6 6 6 5 4 4 4 4 4 3 4 4 5 5 4 4 5 4 4 4 4
3 6 12 3 4 10 7 4 2 5 8 10 10 10 11 12 14 15 13 17 17 18 18 18 16 14 8 6 9 2 6 7 6 6 9 10 9 9 10 11 12 12 12 11 11 11 11 10 9 9 8 8 8 7 7 7 7 7 7 6 6 5 4 4 5 6 6 6 5 4 4 4 4 4 5 5 5 5 6 6 6 6 5 5 5 5
3 1 6 6 6 9 7 7 5 2 2 5 5 6 9 12 13 14 16 15 15 15 17 16 15 13 15 9 7 6 6 7 8 8 9 9 10 11 12 12 13 13 13 13 12 11 10 10 10 9 9 8 7 7 7 7 6 6 6 6 5 4 4 5 5 6 6 5 5 5 5 5 5 5 5 5 6 5 6 5 4 5 6 6 5 6
8 4 5 8 11 11 7 3 4 4 0 5 9 10 15 15 15 15 14 15 15 15 16 13 15 17 9 6 10 8 7 7 7 8 8 9 12 13 15 15 14 12 13 13 13 11 10 10 9 9 9 8 7 6 6 6 7 7 6 6 5 3 4 5 5 6 6 5 5 5 4 4 4 4 4 5 5 4 3 3 4 4 4 5 6 6
9 9 4 10 8 10 6 3 3 4 13 12 6 16 15 15 16 14 13 15 16 17 14 17 16 11 7 10 11 10 9 10 10 11 12 12 12 13 13 11 11 11 11 9 9 9 10 8 7 7 7 8 8 7 6 6 7 7 6 5 4 4 5 5 6 6 5 4 4 3 3 3 3 4 4 4 5 4 3 3 4 4 4 4 5 5
9 7 5 4 5 5 5 7 4 13 14 6 10 9 16 18 14 15 12 17 17 18 18 18 16 14 8 9 12 12 12 13 12 11 10 8 9 10 15 14 12 12 11 11 11 11 10 10 10 9 8 8 8 8 7 7 6 6 6 5 5 4 5 5 6 4 3 2 2 3 3 4 4 4 4 5 3 3 4 4 4 5 4 4 4 5
8 10 5 4 4 3 4 7 9 11 10 11 4 2 4 9 12 9 18 16 18 17 17 18 19 16 14 11 10 8 4 1 1 3 7 7 5 6 10 10 9 11 11 11 14 13 12 12 11 10 9 8 8 7 6 7 6 6 6 5 5 5 5 5 4 3 2 2 3 4 4 4 4 5 4 5 4 5 5 5 6 7 6 4 4 5
10 8 7 5 5 5 5 9 11 4 3 3 4 8 11 13 13 16 16 17 17 14 14 15 18 19 19 15 4 6 4 2 2 7 8 8 5 4 11 12 10 9 10 10 10 11 11 11 11 10 9 8 8 8 7 6 6 6 6 5 5 5 5 4 4 3 3 3 3 4 4 5 5 6 4 5 5 5 5 6 7 6 4 5 6 6
4 8 7 9 4 6 5 5 5 7 12 9 15 5 12 6 7 8 11 13 9 14 16 16 18 17 18 6 6 6 5 2 8 12 9 8 8 7 2 6 10 11 12 11 11 11 11 10 10 9 9 10 8 7 6 6 6 7 6 6 6 6 5 4 4 3 3 3 4 4 4 4 4 4 4 4 4 5 5 6 5 4 4 5 7 7
3 3 3 9 4 6 8 8 7 11 13 12 3 7 8 8 7 7 4 10 15 16 18 17 16 20 17 9 7 8 5 4 10 11 12 12 9 7 9 8 10 11 13 14 15 14 12 11 11 11 9 9 9 6 6 6 7 7 7 7 6 5 5 4 3 3 3 3 3 3 4 4 3 3 3 4 4 4 5 5 4 4 5 5 6 8
4 5 3 6 7 7 7 10 10 4 8 6 7 5 11 10 11 8 8 9 19 17 12 14 19 20 13 8 12 11 11 7 13 12 5 9 8 7 11 12 11 12 11 12 11 12 13 12 12 10 9 9 8 6 6 6 6 5 8 7 6 5 4 3 2 2 3 3 3 3 3 2 2 2 3 4 4 5 4 4 4 5 7 7 5 7
5 3 7 10 10 11 11 7 6 7 6 6 10 7 9 12 13 10 13 14 3 9 13 15 13 13 11 11 12 10 15 14 3 5 8 10 11 9 7 8 10 11 14 13 13 13 12 10 9 10 9 7 7 6 5 6 7 7 7 7 5 4 3 2 2 2 3 3 3 3 3 2 2 3 3 3 5 5 5 4 6 8 8 9 8 8
6 6 6 7 11 13 11 11 10 8 5 7 1 12 13 10 8 14 7 2 5 6 10 11 12 13 13 12 12 13 7 7 8 7 8 7 9 10 10 11 12 11 10 11 13 12 11 10 11 11 10 8 7 6 5 4 6 8 7 6 5 4 3 2 3 3 3 2 2 2 2 2 3 4 5 5 6 8 8 7 7 7 7 6 8 10
10 8 9 10 5 4 5 8 7 11 5 12 13 4 4 8 3 2 3 2 5 2 1 3 5 7 6 7 11 8 7 6 8 8 8 9 11 12 12 13 13 14 14 14 11 9 11 11 10 10 9 7 7 6 4 5 7 7 6 6 4 3 3 3 3 3 2 2 3 4 5 7 9 7 7 7 7 7 9 8 8 8 7 8 9 10
12 8 4 5 10 10 12 11 8 1 8 14 15 7 8 5 1 1 2 1 1 0 2 1 3 2 2 6 8 8 7 9 7 10 9 9 10 10 10 10 11 11 11 9 10 10 8 10 10 10 9 7 7 6 5 5 7 7 7 6 3 2 3 2 3 2 3 5 6 7 7 7 7 7 6 6 7 7 8 8 8 8 7 6 9 9
10 12 10 10 6 8 4 8 3 4 10 4 2 4 7 8 4 1 3 2 2 3 2 1 4 2 1 3 7 9 7 6 10 10 12 12 11 12 11 11 10 11 10 11 10 8 6 10 11 10 9 7 7 6 5 4 7 8 7 4 3 2 3 3 4 5 6 7 6 7 7 6 6 5 5 5 6 7 7 7 7 8 7 7 7 8
2 2 3 1 5 2 4 2 1 1 3 4 4 2 3 1 2 2 1 1 1 1 5 5 3 5 4 8 10 3 6 9 11 10 10 12 12 10 10 11 10 9 9 9 9 7 8 9 10 10 10 8 6 6 5 5 5 7 6 4 4 4 4 5 6 6 6 6 6 6 5 6 5 4 4 6 5 5 6 7 8 7 7 6 7 7
3 1 2 4 1 7 9 11 12 6 2 3 3 2 1 3 1 1 2 1 1 2 4 0 1 5 8 11 12 11 9 10 10 10 9 9 10 11 11 11 10 10 10 8 9 9 8 9 9 9 9 8 5 5 5 6 6 6 5 5 4 5 5 5 6 5 5 5 5 4 4 5 4 6 5 4 4 5 5 5 5 7 7 6 7 9
4 4 5 6 3 10 3 3 3 3 1 1 1 1 4 4 4 1 3 3 3 3 1 3 3 4 4 7 9 11 10 10 12 11 10 9 9 9 8 9 11 10 8 8 8 7 8 7 9 10 8 7 6 4 5 5 6 6 5 5 5 5 4 5 5 4 4 4 3 3 3 3 6 6 5 4 5 5 5 5 5 6 7 6 7 9
2 7 4 6 8 5 7 5 4 1 0 3 3 5 5 4 4 4 2 2 3 4 4 4 3 1 2 3 8 11 12 12 13 15 13 9 9 8 8 8 8 9 9 9 7 6 7 8 9 9 9 8 6 5 5 6 5 5 6 5 4 4 4 4 4 3 2 2 2 2 3 4 4 4 5 6 6 5 5 6 6 7 9 8 6 7
3 5 3 4 3 6 9 6 7 2 2 3 8 10 12 7 1 1 1 2 4 5 5 5 3 1 2 3 7 12 15 13 12 14 13 9 10 10 11 10 9 10 8 7 6 7 8 7 8 9 9 7 6 5 6 6 6 5 5 4 4 4 4 4 3 2 1 1 2 2 3 4 4 4 5 5 6 8 8 8 11 11 10 12 12 14
8 7 6 5 6 5 5 3 8 7 6 1 4 3 2 3 6 7 8 9 8 7 8 9 8 4 5 4 4 7 9 13 15 14 14 10 8 8 9 11 11 9 9 9 10 8 8 7 7 8 8 7 6 6 6 6 5 5 4 4 4 5 6 5 4 3 2 2 2 3 4 4 5 5 5 6 7 7 9 11 8 10 14 17 19 21
Wind_Direction
164 196 197 206 206 201 201 208 207 68 193 191 191 208 194 187 194 101 87 79 321 237 222 228 241 254 259 257 254 246 181 215 231 236 234 233 233 232 232 235 236 234 240 142 133 142 165 171 176 180 182 189 190 198 196 197 200 200 200 197 202 196 197 198 198 200 200 204 210 216 217 219 222 225 223 223 229 233 233 232 230 229 220 215 215 217
209 210 209 210 209 197 198 192 122 117 110 163 166 193 200 197 200 85 116 112 106 228 232 221 247 255 259 258 259 252 240 233 232 235 235 235 234 230 227 231 232 238 183 133 180 174 169 180 172 167 179 184 188 196 198 199 199 200 200 202 203 197 197 201 201 198 202 203 206 208 214 221 222 218 219 227 231 229 235 237 227 224 216 215 220 214
199 216 208 202 94 117 125 131 145 179 155 161 200 193 208 189 88 130 88 106 129 169 252 153 253 260 258 258 256 250 245 242 235 240 238 235 233 233 224 222 226 204 206 200 207 190 180 169 170 174 180 191 203 197 199 201 198 199 201 205 202 201 199 200 202 201 202 202 205 208 211 212 224 220 220 222 230 234 222 216 219 221 219 218 217 203
201 216 214 121 150 137 117 149 192 184 198 193 184 188 208 149 177 199 153 146 158 225 330 20 296 274 269 258 254 249 241 240 238 236 237 234 235 226 225 230 218 216 217 208 201 192 184 172 176 178 178 183 186 195 195 196 199 198 200 201 200 200 201 201 201 204 204 201 201 208 225 226 238 310 320 217 219 232 238 238 225 222 227 218 214 212
193 71 16 180 147 188 173 177 189 200 208 209 234 201 192 147 178 356 133 138 118 246 334 296 282 269 250 248 239 229 213 191 200 217 240 243 235 246 278 293 255 247 241 241 228 215 185 175 183 184 185 175 180 191 195 191 193 194 197 195 194 194 198 201 198 196 200 195 199 206 212 242 250 263 255 292 246 243 248 246 237 242 243 245 248 241
145 0 319 162 186 182 178 183 200 201 218 191 229 274 82 170 139 104 117 139 186 223 189 216 271 264 230 221 230 164 181 225 218 214 224 227 217 195 224 235 231 228 240 246 236 224 215 203 183 176 167 177 190 193 194 191 190 190 188 188 187 191 193 194 195 190 190 195 196 195 202 208 220 230 223 225 231 232 235 246 257 261 258 255 251 252
85 84 232 158 156 175 193 207 195 204 218 214 187 175 95 131 130 138 151 185 211 245 130 219 228 267 125 203 209 190 195 223 172 213 225 202 197 195 214 214 207 212 215 218 233 235 227 217 218 215 205 201 200 199 178 181 190 190 184 182 180 182 182 182 185 184 184 194 200 204 205 212 220 227 231 231 229 236 240 237 235 234 241 239 242 244
141 127 126 185 160 171 184 211 183 197 223 219 25 172 130 158 150 165 173 206 307 77 87 225 250 263 276 257 131 134 207 238 226 208 207 195 197 199 197 201 210 229 238 246 243 229 222 223 214 216 204 196 198 162 144 167 179 183 177 171 170 171 172 167 175 181 184 188 193 198 207 210 221 224 235 225 221 228 247 253 248 247 253 257 253 252
145 142 171 155 182 184 204 243 159 189 224 8 23 260 149 182 180 168 196 201 8 301 233 181 198 256 250 218 126 162 247 242 231 208 188 184 179 176 205 205 208 241 250 247 233 214 192 201 204 199 163 149 126 134 172 177 167 165 166 160 162 164 165 160 169 175 181 189 189 192 196 207 218 226 232 240 244 246 247 258 265 267 264 261 266 277
14 148 165 175 174 195 76 31 349 186 209 136 163 80 86 83 107 174 193 200 203 213 244 182 187 242 265 225 189 193 241 242 237 180 179 170 161 169 202 221 241 194 201 211 233 213 183 165 152 103 105 131 121 117 132 132 140 148 151 158 161 158 163 156 165 175 176 184 189 187 194 203 205 212 227 243 256 277 263 263 262 265 266 268 269 270
352 315 281 9 194 47 99 49 26 30 65 134 160 111 108 116 130 129 161 212 211 238 232 95 216 273 284 222 220 187 221 232 226 150 150 145 144 151 142 180 202 213 175 191 177 157 125 96 114 148 137 117 119 131 141 142 145 144 149 151 153 151 147 151 159 168 170 178 189 190 193 200 207 205 216 225 237 261 266 257 260 261 264 268 269 272
101 98 190 65 343 172 110 91 46 7 137 158 146 142 125 107 146 177 187 206 234 243 91 325 179 259 227 237 217 34 17 10 316 194 172 170 156 144 130 131 100 124 129 146 143 125 122 125 124 132 121 120 122 130 128 128 134 141 143 146 136 126 128 142 150 162 169 176 185 191 189 197 206 212 214 224 235 235 240 246 255 258 263 264 272 278
112 142 69 57 284 215 167 110 60 85 198 239 161 167 176 169 169 202 188 208 218 243 106 98 231 230 236 245 247 196 159 198 216 263 161 153 141 125 120 94 104 87 117 124 118 123 126 121 124 118 115 118 117 113 121 123 124 127 133 134 130 132 138 144 153 162 165 173 182 185 190 195 201 208 213 223 233 239 244 246 244 248 252 254 253 251
120 110 169 114 166 252 219 155 136 164 203 196 190 180 193 187 185 213 200 222 233 71 259 113 151 264 297 270 241 256 243 178 165 99 84 98 102 110 105 103 90 104 87 93 94 94 96 101 100 106 108 105 104 104 105 109 112 118 130 137 130 134 143 145 152 158 162 170 176 184 187 192 193 198 209 216 228 233 246 255 267 269 275 275 273 280
170 232 210 168 196 166 221 240 173 170 175 197 206 200 202 207 182 198 197 195 206 188 103 253 219 237 190 139 35 47 34 103 103 88 79 101 108 106 92 105 120 121 106 99 95 89 89 88 93 91 90 87 89 94 94 97 102 110 110 117 122 127 136 147 153 157 160 163 167 169 180 187 186 192 193 205 209 222 238 265 276 279 284 284 294 297
206 147 40 6 326 348 198 354 340 150 166 173 315 16 261 227 299 239 29 334 129 153 152 175 228 278 246 105 162 131 129 88 119 123 146 169 147 142 153 150 142 128 118 108 105 96 80 80 80 83 78 78 80 83 83 83 84 89 92 100 107 113 115 116 122 126 133 130 129 135 159 170 182 182 203 211 188 212 250 273 283 286 279 287 303 310
161 209 48 135 212 119 9 341 340 296 190 179 161 210 184 18 101 108 121 100 355 322 253 148 244 253 265 280 237 182 179 201 164 174 175 175 150 154 159 152 139 133 123 117 109 99 95 77 66 64 68 74 73 68 66 65 68 86 97 102 101 100 99 100 103 108 108 118 129 130 123 102 105 86 31 0 37 358 331 274 274 267 309 316 299 308
183 133 15 162 169 69 56 354 326 44 313 93 211 187 116 213 3 168 234 131 230 238 244 152 217 247 210 263 109 140 194 186 182 186 182 171 158 164 157 150 147 139 122 105 95 88 85 80 74 67 61 59 66 70 71 66 58 58 65 83 96 100 99 97 99 98 100 103 95 92 83 74 59 57 49 21 7 342 301 266 218 207 229 312 344 313
146 110 105 357 39 66 164 225 151 159 38 309 185 7 184 184 217 180 247 221 212 224 243 211 214 247 228 215 141 183 189 192 198 177 175 168 173 167 153 150 140 126 121 124 120 114 101 89 80 82 77 69 65 65 66 66 67 69 67 65 75 79 78 84 82 88 78 73 75 70 72 74 77 68 54 46 18 359 349 351 349 352 341 296 328 329
178 224 115 8 99 120 142 197 201 175 196 45 298 214 27 347 235 186 198 275 239 244 231 235 157 243 189 226 228 202 185 198 182 171 186 176 175 165 157 151 148 149 149 144 136 119 108 98 90 82 84 82 73 73 69 70 70 70 70 73 75 78 79 77 75 78 80 74 82 87 88 76 76 69 65 49 38 42 36 21 3 356 350 3 353 14
169 13 206 111 310 176 178 204 212 177 165 173 190 180 200 215 14 340 241 217 220 237 234 253 238 230 205 189 214 231 242 212 178 174 175 173 173 162 153 152 156 159 155 148 139 129 122 117 106 94 88 83 80 77 76 75 77 78 77 80 81 86 83 79 76 78 79 86 83 85 80 78 69 65 60 63 50 54 44 38 24 16 354 339 15 15
143 181 186 131 152 217 178 36 359 18 202 196 186 191 189 174 173 186 225 105 112 215 242 232 246 270 92 29 210 197 69 43 160 166 163 167 165 154 153 160 161 159 155 147 141 133 127 119 113 112 106 108 106 98 96 90 90 83 78 80 82 81 79 83 78 82 85 80 78 75 73 69 68 62 59 58 50 44 41 33 30 9 352 1 11 13
133 91 110 169 184 190 59 72 31 225 97 299 281 216 199 210 204 209 225 185 189 224 34 336 344 253 77 68 15 77 85 68 29 148 157 164 162 159 158 156 155 154 152 148 138 134 133 132 132 128 123 114 107 103 96 90 85 83 82 79 78 82 75 73 76 72 75 77 75 72 69 66 55 50 54 54 46 39 33 29 25 12 3 2 1 1
68 131 103 87 62 17 192 157 174 178 309 263 240 255 229 203 205 222 257 98 187 137 220 230 238 264 154 122 93 57 50 34 68 298 165 164 163 161 158 157 154 149 142 131 127 127 126 128 129 130 130 124 116 102 93 89 86 82 79 79 80 76 76 74 73 79 82 82 81 77 72 66 65 57 54 57 47 36 31 22 20 13 10 1 358 359
173 203 152 138 144 157 239 177 175 147 204 224 221 201 213 249 67 80 90 281 267 178 208 201 246 255 151 126 112 174 162 195 205 208 230 172 167 163 162 158 154 147 138 140 143 140 138 145 151 142 131 121 111 106 98 94 92 88 81 76 81 78 75 75 76 81 84 83 79 71 67 62 56 53 48 47 43 33 29 18 18 12 10 0 0 354
197 146 166 166 171 182 191 197 203 197 207 208 235 40 187 208 186 147 234 198 242 175 198 218 247 251 88 184 163 165 166 191 205 188 212 204 171 162 159 159 157 153 155 153 147 146 156 155 139 131 128 123 119 113 107 102 100 94 88 79 73 86 86 78 74 75 78 76 74 66 60 53 49 48 46 41 39 35 29 23 21 13 9 1 350 349
130 262 193 186 198 205 216 227 210 130 109 188 194 205 201 200 205 207 0 221 223 209 211 214 235 253 219 192 199 187 187 199 190 182 188 193 174 162 158 161 162 160 160 159 154 157 145 141 148 142 135 130 122 116 115 114 109 107 100 91 79 74 78 71 71 74 74 71 70 67 58 54 50 45 43 38 33 28 25 25 21 13 7 352 340 356
126 243 221 214 215 215 212 222 193 164 185 196 203 208 204 201 195 196 201 220 211 221 244 221 228 240 242 208 193 202 199 209 202 187 184 189 181 168 167 158 150 152 155 153 158 162 161 157 150 148 144 137 130 120 111 103 104 103 101 96 85 77 70 62 75 75 75 74 70 67 62 55 49 49 40 33 31 30 26 20 16 9 354 349 350 356
166 204 211 222 235 231 216 143 152 188 202 202 211 199 197 184 191 192 218 232 223 217 234 231 219 230 242 231 212 205 191 199 204 199 190 183 167 154 149 155 167 168 163 165 171 169 168 165 161 156 152 145 142 136 129 123 114 105 94 87 84 77 68 67 79 81 79 76 73 66 60 55 44 42 39 31 33 27 19 14 5 357 343 347 347 339
157 207 194 208 239 244 195 167 170 193 199 215 211 207 190 183 189 198 216 225 223 227 231 242 243 228 234 236 228 226 179 181 149 108 135 162 174 167 164 164 170 173 173 179 178 176 171 166 161 159 153 151 148 140 132 121 112 103 102 94 85 82 68 74 76 86 84 77 71 61 55 52 42 37 33 27 26 21 12 7 358 345 347 346 345 331
219 194 183 165 237 247 236 154 175 229 201 215 212 201 181 183 196 206 217 229 229 236 242 247 255 264 256 225 225 98 80 89 105 150 177 187 172 165 171 178 181 182 182 183 179 174 169 162 158 154 154 149 141 136 124 116 111 106 101 97 93 86 73 79 87 82 77 74 63 55 49 47 32 25 31 23 19 9 9 1 356 347 344 344 337 329
181 268 170 187 232 252 239 190 197 203 312 261 203 157 167 172 197 205 217 219 219 225 239 251 255 253 250 209 194 116 133 145 165 185 190 191 184 180 190 189 186 185 183 183 176 168 158 159 160 159 152 141 132 124 121 117 114 110 102 98 92 88 83 83 80 78 71 63 54 46 38 35 22 24 22 19 11 1 357 339 344 340 338 334 333 330
184 160 176 174 208 226 217 244 197 142 121 258 226 195 193 198 201 206 217 220 214 213 228 229 238 238 249 162 199 161 170 178 184 193 194 196 194 187 193 194 192 186 180 176 170 162 158 157 159 154 142 138 133 119 109 112 113 106 106 102 101 98 86 77 71 68 63 48 41 34 29 23 21 20 16 11 357 350 337 335 340 342 340 330 319 309
185 188 187 174 204 204 173 138 136 181 224 227 203 208 192 200 201 208 212 216 216 210 223 226 236 250 190 179 196 192 182 191 196 199 196 192 192 197 200 194 188 177 171 165 149 144 146 145 144 141 139 126 114 108 106 97 100 101 95 99 99 85 77 75 66 62 60 53 35 31 28 23 21 19 10 2 356 343 343 341 338 337 322 309 311 311
184 193 212 181 210 201 120 136 173 227 237 231 234 210 201 211 197 205 217 218 219 217 228 241 244 247 201 204 199 207 208 209 208 206 212 211 197 190 191 185 174 164 162 148 145 151 155 151 142 135 129 125 119 116 113 104 103 105 103 101 95 87 85 77 72 65 67 65 39 27 28 21 22 14 8 354 345 339 335 339 337 332 328 321 319 319
172 184 183 197 181 77 154 171 214 235 226 226 214 83 224 215 221 220 238 231 221 213 214 230 239 240 235 222 208 211 203 202 220 254 233 226 200 184 175 178 166 152 157 162 158 160 155 152 147 144 135 121 120 118 115 115 117 112 105 103 99 94 88 93 91 75 56 50 34 27 21 21 20 7 1 353 349 344 340 338 333 327 321 311 304 299
193 178 187 194 171 198 176 194 215 27 10 127 192 207 162 194 188 200 229 237 223 220 214 225 233 237 239 241 177 86 100 84 254 252 220 198 173 182 191 195 158 131 133 134 140 138 137 134 134 127 123 123 119 118 116 121 124 120 120 112 106 102 98 97 83 59 43 36 25 21 20 16 13 3 354 345 342 334 329 325 321 312 299 300 296 289
219 201 184 201 205 204 188 213 212 229 245 213 216 186 189 187 192 200 221 261 242 215 214 216 228 234 237 210 128 104 94 133 246 246 223 170 180 184 144 133 133 130 128 121 120 122 125 120 114 118 121 115 107 104 113 126 130 126 119 113 111 105 94 83 65 45 25 25 21 19 19 15 9 355 344 335 324 314 308 304 288 285 300 297 304 301
316 332 266 216 197 180 217 222 205 218 233 236 123 137 160 166 156 115 194 248 245 225 212 213 223 235 234 192 140 135 136 210 235 238 224 166 179 167 138 130 126 129 136 139 140 135 128 126 125 122 116 112 108 107 113 123 126 119 113 109 102 97 92 77 55 26 11 13 15 20 19 13 5 350 335 316 302 303 300 292 290 302 307 303 300 298
187 213 194 220 221 206 199 215 228 201 250 228 164 164 161 159 127 121 217 242 242 228 205 214 220 232 230 189 158 175 193 221 234 242 109 145 143 142 144 138 132 126 121 117 115 118 119 119 120 118 113 108 104 105 116 115 109 106 109 104 100 98 89 69 36 356 0 5 11 23 14 10 4 335 310 303 304 302 299 306 308 325 325 317 307 310
188 203 209 214 212 217 212 235 251 254 241 155 164 129 149 144 146 177 212 234 266 131 185 215 217 220 206 196 170 200 213 226 244 86 119 110 113 109 101 104 112 122 127 127 123 121 121 122 116 112 109 102 98 95 104 120 113 112 108 108 106 93 70 35 16 355 6 0 11 16 6 352 342 318 311 321 322 318 321 324 329 326 328 321 316 312
183 182 203 205 216 215 214 224 229 266 242 129 14 151 146 128 198 211 212 11 126 168 187 195 204 209 213 201 191 214 211 84 118 103 109 125 116 125 117 117 108 97 91 106 120 123 115 109 108 104 95 87 81 77 85 114 116 116 115 106 92 77 39 19 5 4 352 11 10 357 349 353 343 346 347 344 343 340 333 332 325 317 316 310 304 303
174 180 192 200 202 237 231 232 232 244 229 124 110 75 222 195 293 180 126 8 37 7 114 218 203 217 201 205 203 195 99 114 117 131 122 122 130 133 136 133 132 131 133 132 125 123 123 121 119 112 106 94 80 69 67 105 112 112 107 97 81 62 36 12 4 351 357 6 5 10 7 6 359 353 352 346 344 336 323 320 318 314 310 301 302 305
157 192 171 211 189 198 199 202 210 231 86 141 145 192 186 247 105 305 110 125 277 353 172 170 242 226 206 202 170 134 130 121 126 121 124 116 117 116 113 112 111 114 112 106 112 121 117 109 111 107 98 90 80 70 59 98 113 113 105 90 68 53 35 10 356 4 21 23 17 10 9 359 354 350 338 335 330 325 314 313 312 309 307 310 310 305
172 204 181 208 176 208 202 226 204 158 175 212 122 29 191 179 74 71 49 60 153 215 175 254 227 175 201 158 136 131 133 150 139 146 135 144 133 134 130 130 128 125 122 121 118 115 113 117 119 111 99 88 81 73 68 79 114 114 101 88 71 42 31 11 14 27 27 22 11 7 357 345 336 326 328 333 324 313 308 308 316 313 312 312 304 301
13 211 49 189 218 187 292 210 357 197 251 247 94 98 7 33 88 75 113 124 186 138 176 199 186 150 148 143 133 123 136 142 139 142 136 136 134 120 115 109 101 96 96 99 103 107 112 110 106 109 106 92 85 85 82 80 100 103 95 86 63 39 27 19 27 31 26 16 4 352 333 335 327 326 327 314 306 300 298 302 305 300 304 304 299 298
209 161 162 195 103 174 231 220 223 228 168 250 241 116 227 333 241 156 174 212 65 132 159 42 163 175 160 160 160 155 141 143 133 133 130 128 129 132 132 131 126 129 131 126 119 112 112 115 115 117 115 110 105 101 97 91 79 82 85 75 58 41 31 32 36 34 23 7 350 335 333 330 327 322 307 296 299 296 290 289 290 296 298 304 307 308
233 177 208 191 183 208 226 185 325 50 14 3 267 257 255 231 213 165 36 22 4 338 58 115 125 118 141 160 158 137 140 146 137 142 142 141 137 136 131 129 129 117 103 108 115 109 111 118 125 130 127 121 122 110 101 91 84 80 80 70 55 45 41 48 38 27 8 343 328 325 319 308 302 299 300 299 298 295 295 286 288 288 290 301 304 304
123 122 202 179 214 247 289 234 162 284 109 214 203 250 265 249 193 160 133 76 56 58 37 32 16 40 212 171 140 135 143 165 159 154 149 140 134 135 135 126 120 119 120 121 120 122 125 130 128 132 128 121 121 115 105 98 91 82 71 68 57 51 54 51 35 20 326 297 298 297 304 306 302 300 301 299 291 279 277 293 290 286 281 269 264 269
135 202 163 148 214 219 223 222 130 253 253 184 198 211 226 229 96 100 87 178 158 157 154 148 189 344 131 148 168 164 163 165 162 151 146 139 140 133 131 130 128 128 121 112 109 109 108 116 130 132 126 119 124 121 116 102 90 78 74 65 57 55 58 40 22 1 344 323 319 311 320 311 306 300 301 302 306 308 297 277 276 278 287 295 287 280
203 192 171 202 195 238 236 179 170 198 243 8 38 9 9 132 169 175 205 220 211 176 169 160 155 151 202 178 143 171 172 163 162 146 132 127 131 126 131 139 142 141 137 139 128 129 128 130 128 124 119 122 124 118 109 104 101 95 81 72 49 51 44 30 18 353 333 328 318 317 309 304 307 314 314 315 319 318 314 312 294 264 268 278 290 297